"Time","Temp","Dewpoint","Humidity","Pressure","Direction","Speed","Gust","Precip","PrecipRate"
"00:04:59","69.3","67","92.2","29.79","324","1","3.5","0.00","0.00"
"00:09:56","69.1","66.9","92.8","29.79","325","1.9","5","0.00","0.00"
"00:14:58","68.8","66.9","93.6","29.80","340","1.9","5","0.00","0.00"
"00:19:56","68.7","66.9","94","29.80","326","1.1","5","0.03","0.02"
"00:24:57","68.5","66.6","93.8","29.80","333","1.3","4.6","0.07","0.07"
"00:29:59","68.3","66.5","94","29.80","329","0.6","3.5","0.08","0.08"
"00:34:57","68.2","66.4","94","29.80","336","1.2","4","0.09","0.06"
"00:39:56","68","66.2","94","29.80","341","0.9","4","0.09","0.21"
"00:44:58","67.9","66.1","94","29.80","341","1","3.5","0.09","0.19"
"00:49:58","67.8","66.1","94.3","29.79","341","1","4","0.09","0.14"
"00:54:56","67.8","66.3","95","29.79","341","0.5","2.3","0.09","0.13"
"00:59:58","67.8","66.3","95","29.80","341","0","0","0.09","0.11"
"01:04:57","67.8","66.4","95.3","29.80","341","0.3","2.3","0.10","0.09"
"01:09:58","67.9","66.7","96","29.80","265","1.6","4","0.10","0.10"
"01:14:56","68","66.8","96","29.80","212","0.3","2.3","0.11","0.11"
"01:19:56","68.1","66.9","96","29.80","212","0","1.2","0.11","0.11"
"01:24:59","68.1","66.9","96","29.80","212","0.4","2","0.12","0.08"
"01:29:57","68.2","67","96","29.80","241","0.7","3.5","0.12","0.05"
"01:34:57","68.2","67","96","29.80","250","0.5","2.3","0.12","0.04"
"01:39:59","68.2","67","96","29.80","250","0.3","2","0.13","0.03"
"01:44:58","68.3","67.1","96","29.82","251","0.5","3","0.14","0.04"
"01:49:59","68.3","67.1","96","29.82","316","1.8","5","0.16","0.07"
"01:54:58","68.3","67.1","96","29.82","320","1.4","4.6","0.17","0.08"
"01:59:56","68.2","67","96","29.82","318","0.8","4","0.17","0.08"
"02:04:57","68.1","66.9","96","29.81","324","1.5","4","0.17","0.08"
"02:09:59","68","66.8","96","29.81","331","1.1","3.5","0.17","0.07"
"02:14:59","67.9","66.7","96","29.81","330","0.9","2.3","0.17","0.07"
"02:19:58","67.9","66.7","96","29.80","330","0.6","2.3","0.18","0.07"
"02:24:57","67.9","66.7","96","29.80","339","0.7","5","0.18","0.07"
"02:29:59","67.8","66.6","96","29.80","350","1.2","4","0.19","0.07"
"02:34:56","67.7","66.5","96","29.80","340","1.4","4","0.19","0.07"
"02:39:58","67.7","66.6","96.3","29.80","331","0.8","2.3","0.19","0.07"
"02:44:59","67.7","66.8","96.9","29.80","331","0.9","3.5","0.19","0.06"
"02:49:57","67.7","66.7","96.7","29.80","341","1.4","3.5","0.19","0.05"
"02:54:55","67.6","66.6","96.4","29.80","338","1.4","4","0.19","0.03"
"02:59:56","67.7","66.8","96.9","29.81","324","2","4","0.19","0.02"
"03:04:56","67.8","66.9","97","29.81","190","1.1","2.3","0.19","0.02"
"03:09:56","67.8","66.9","97","29.81","198","0.5","4","0.20","0.03"
"03:14:58","67.8","66.9","97","29.81","309","1.3","4","0.21","0.04"
"03:19:59","67.7","66.8","97","29.81","336","0.5","3.5","0.21","0.04"
"03:24:57","67.7","66.8","96.9","29.81","336","0.7","3.5","0.21","0.03"
"03:29:57","67.6","66.6","96.4","29.81","336","0.5","2.3","0.22","0.03"
"03:34:59","67.6","66.4","96","29.81","336","0.2","1.2","0.22","0.03"
"03:39:57","67.6","66.4","96.2","29.81","336","0.8","2.3","0.22","0.03"
"03:44:56","67.6","66.4","96","29.81","336","1.1","4","0.22","0.03"
"03:49:56","67.4","66.2","96","29.81","336","0.5","3.5","0.22","0.03"
"03:54:58","67.3","66.1","96","29.81","336","0","0","0.22","0.03"
"03:59:56","67.1","65.9","96","29.81","341","0.6","3","0.22","0.03"
"04:04:58","66.8","65.5","95.6","29.80","341","0.9","3.5","0.22","0.03"
"04:09:56","66.6","65.2","95.5","29.80","344","1.1","4","0.22","0.03"
"04:14:58","66.4","65.2","95.9","29.80","346","0.9","4","0.22","0.02"
"04:19:57","66.2","65","96","29.80","346","0.9","3","0.22","0.01"
"04:24:59","66.1","64.9","96","29.80","345","0.7","4","0.22","0.01"
"04:29:58","65.9","64.7","96","29.80","345","0.3","3.5","0.22","0.01"
"04:34:56","65.8","64.6","96","29.80","345","0","0","0.22","0.00"
"04:39:56","65.7","64.5","96","29.80","345","0","0","0.22","0.00"
"04:44:59","65.5","64.2","95.5","29.80","346","0.1","1.2","0.22","0.00"
"04:49:57","65.3","63.8","95","29.78","343","0.7","4","0.22","0.00"
"04:54:57","65.1","63.8","95.7","29.78","343","0.4","2.3","0.22","0.00"
"04:59:57","64.9","63.7","96","29.79","343","0.5","2.3","0.22","0.00"
"05:04:56","64.8","63.6","96","29.79","343","0","0","0.22","0.00"
"05:09:59","64.7","63.5","96","29.79","343","0.2","2.3","0.22","0.00"
"05:14:58","64.5","63.3","96","29.80","343","0.3","1.2","0.22","0.00"
"05:19:58","64.4","63.2","96","29.80","343","0.1","1.2","0.22","0.00"
"05:24:59","64.3","63.1","96","29.80","343","0.1","1.2","0.22","0.00"
"05:29:55","64.3","63.1","96","29.80","343","0","1.2","0.22","0.00"
"05:34:57","64.2","63","96","29.79","343","0","0","0.22","0.00"
"05:39:58","64.2","63","96","29.79","343","0","0","0.22","0.00"
"05:44:59","64.1","63","96.4","29.80","343","0","0","0.22","0.00"
"05:49:56","64.1","63.2","97","29.80","343","0","0","0.22","0.00"
"05:54:57","64.1","63.2","97","29.80","343","0","0","0.22","0.00"
"05:59:57","64","63.1","97","29.81","343","0","0","0.22","0.00"
"06:04:56","64","63.1","97","29.81","343","0","0","0.22","0.00"
"06:09:56","64","63.1","97","29.81","343","0","0","0.22","0.00"
"06:14:58","63.9","63","97","29.81","343","0","0","0.22","0.00"
"06:19:59","63.9","63","97","29.81","343","0","0","0.22","0.00"
"06:24:57","63.9","63","97","29.81","343","0","1","0.22","0.00"
"06:29:58","63.9","63","97","29.82","343","0.3","2.3","0.22","0.00"
"06:34:59","63.9","63","97","29.82","343","0","0","0.22","0.00"
"06:39:58","63.9","63","97","29.82","343","0","0","0.22","0.00"
"06:44:56","63.9","63","97","29.82","343","0","0","0.22","0.00"
"06:49:57","63.9","63","97","29.82","343","0","0","0.22","0.00"
"06:54:58","63.9","63","97","29.82","343","0","0","0.22","0.00"
"06:59:59","63.9","63","97","29.83","343","0","0","0.22","0.00"
"07:04:57","64","63.2","97.4","29.83","343","0.2","1.2","0.22","0.00"
"07:09:56","64.2","63.5","97.7","29.83","343","0","1.2","0.22","0.00"
"07:14:58","64.3","63.5","97.3","29.83","343","0","0","0.22","0.00"
"07:19:59","64.4","63.5","97","29.83","343","0","0","0.22","0.00"
"07:24:56","64.5","63.8","97.6","29.83","343","0","0","0.22","0.00"
"07:29:58","64.7","64.1","98","29.83","343","0","0","0.22","0.00"
"07:34:56","64.7","64.1","98","29.83","343","0","0","0.22","0.00"
"07:39:56","64.8","64.2","98","29.83","343","0","0","0.22","0.00"
"07:44:58","64.9","64.3","98","29.83","343","0","0","0.22","0.00"
"07:49:57","65","64.3","97.7","29.83","343","0","0","0.22","0.00"
"07:54:59","65","64.1","97","29.83","343","0","0","0.22","0.00"
"07:59:57","65","64.1","97","29.84","343","0","0","0.22","0.00"
"08:04:59","65","64.1","97","29.84","343","0","0","0.22","0.00"
"08:09:58","65.1","64.3","97.4","29.84","343","0","0","0.22","0.00"
"08:14:59","65.3","64.7","98","29.84","343","0","0","0.22","0.00"
"08:19:57","65.5","64.9","98","29.83","343","0","0","0.22","0.00"
"08:24:59","65.6","64.9","97.6","29.83","343","0","0","0.22","0.00"
"08:29:57","65.6","64.7","97","29.83","343","0","0","0.22","0.00"
"08:34:57","65.9","65.2","97.7","29.82","343","0","0","0.22","0.00"
"08:39:58","65.8","64.9","97","29.82","343","0","0","0.22","0.00"
"08:44:56","65.9","65","97","29.82","343","0","0","0.22","0.00"
"08:49:58","66.1","65.1","96.7","29.82","343","0","0","0.22","0.00"
"08:54:58","66.1","64.9","96.1","29.82","343","0","0","0.22","0.00"
"08:59:59","66.2","65.3","97","29.84","343","0","0","0.22","0.00"
"09:04:58","66.3","65.4","97","29.84","343","0","0","0.22","0.00"
"09:09:56","66.4","65.5","97","29.84","343","0.2","2.3","0.22","0.00"
"09:14:56","66.4","65.3","96.1","29.84","343","0.2","2.3","0.22","0.00"
"09:19:56","66.5","65.6","97","29.84","343","0.5","2.3","0.22","0.00"
"09:24:57","66.6","65.7","97","29.84","343","0.9","2.3","0.22","0.00"
"09:29:57","66.6","65.6","96.7","29.84","343","0.5","2.3","0.22","0.00"
"09:34:56","66.8","65.9","97","29.84","343","0.1","2","0.22","0.00"
"09:39:57","66.7","65.5","96.1","29.84","343","0","0","0.22","0.00"
"09:44:59","66.8","65.6","96","29.85","343","0","0","0.22","0.00"
"09:49:56","66.8","65.9","96.8","29.85","343","0","0","0.22","0.00"
"09:54:58","66.9","65.8","96.3","29.85","343","0","0","0.22","0.00"
"09:59:59","66.9","65.7","96","29.85","343","0","0","0.22","0.00"
"10:04:57","66.9","65.7","96","29.83","343","0","0","0.22","0.00"
"10:09:56","67","66.1","96.8","29.83","343","0","0","0.22","0.00"
"10:14:57","67.2","66.1","96.4","29.84","343","0","0","0.22","0.00"
"10:19:56","67.2","66","96","29.84","343","0","0","0.22","0.00"
"10:24:57","67.4","66.2","96","29.84","343","0","0","0.22","0.00"
"10:29:57","67.5","66.3","96","29.84","343","0","0","0.22","0.00"
"10:34:57","67.6","66.4","96","29.84","343","0","0","0.22","0.00"
"10:39:57","67.7","66.5","96","29.84","341","0","1.2","0.22","0.00"
"10:44:58","67.8","66.4","95.2","29.85","291","0.6","3.5","0.22","0.00"
"10:49:59","67.9","66.3","94.8","29.85","312","1.8","4","0.22","0.00"
"10:54:56","68","66.4","94.8","29.85","281","1.5","3.5","0.22","0.00"
"10:59:56","68.1","66.6","95","29.85","306","0.9","3","0.22","0.00"
"11:04:58","68.4","66.9","95","29.85","307","0.6","3.5","0.22","0.00"
"11:09:56","68.6","66.9","94.3","29.85","324","0.5","2.3","0.22","0.00"
"11:14:56","68.8","67.1","94.3","29.85","321","0","0","0.22","0.00"
"11:19:57","69","67.3","94.2","29.85","321","0.7","4","0.22","0.00"
"11:24:56","69.3","67.5","93.8","29.85","322","1.1","5","0.22","0.00"
"11:29:56","69.7","67.7","93.3","29.85","278","1.4","3.5","0.22","0.00"
"11:34:59","69.9","67.4","91.9","29.85","328","1.6","6","0.22","0.00"
"11:39:57","70.1","67.6","91.8","29.85","338","1.1","4","0.22","0.00"
"11:44:57","70.3","67.8","91.6","29.85","333","1.7","4","0.22","0.00"
"11:49:58","70.4","67.6","91.1","29.85","335","1.6","5","0.22","0.00"
"11:54:57","70.4","67.5","90.8","29.85","299","0.9","3.5","0.22","0.00"
"11:59:58","70.4","67.7","91.2","29.85","296","0.7","3.5","0.22","0.00"
"12:04:57","70.5","68.1","92","29.85","278","0.4","3.5","0.22","0.00"
"12:09:59","70.8","68.4","92.2","29.85","291","0.4","3","0.22","0.00"
"12:14:56","71.2","68.5","91.1","29.85","330","1.8","5","0.22","0.00"
"12:19:59","71.4","68.3","89.9","29.84","341","1.9","4","0.22","0.00"
"12:24:59","71.5","68","88.4","29.84","274","1.8","4","0.22","0.00"
"12:29:56","71.5","67.7","87.6","29.84","307","1.4","4","0.22","0.00"
"12:34:58","71.6","68","88.4","29.83","279","1.3","4","0.22","0.00"
"12:39:57","71.7","68","88","29.83","347","1.9","5","0.22","0.00"
"12:44:58","71.9","68.2","88","29.83","350","1","3.5","0.22","0.00"
"12:49:59","71.9","68","87.4","29.82","312","2.3","6","0.22","0.00"
"12:54:57","71.7","67.6","86.7","29.82","350","2.1","6","0.22","0.00"
"12:59:57","71.8","67.9","87.7","29.82","333","0.9","3.5","0.22","0.00"
"13:04:59","71.9","68.2","88.2","29.82","260","1.1","3.5","0.22","0.00"
"13:09:57","71.9","68.3","88.4","29.82","272","1.5","3.5","0.22","0.00"
"13:14:58","71.9","68.2","88","29.82","314","1.9","6","0.22","0.00"
"13:19:58","71.7","67.7","87.1","29.82","336","1.5","5","0.22","0.00"
"13:24:58","71.6","67.8","87.8","29.82","300","0.9","4","0.22","0.00"
"13:29:56","71.5","67.8","87.9","29.82","311","1.2","7","0.22","0.00"
"13:34:58","71.4","67.4","87.3","29.82","315","1.9","6.9","0.22","0.00"
"13:39:57","71.2","67.4","87.6","29.82","342","2","5","0.22","0.00"
"13:44:58","71.2","67.5","88","29.82","338","1.3","9","0.22","0.00"
"13:49:56","71.4","67.6","87.8","29.81","345","2.9","9.2","0.22","0.00"
"13:54:58","72.1","68.2","87.7","29.81","314","2.2","7","0.22","0.00"
"13:59:57","72.9","68.7","86.6","29.82","321","2.4","7","0.22","0.00"
"14:04:58","74","69.5","86.1","29.82","288","2.9","7","0.22","0.00"
"14:09:56","74.6","68.6","81.5","29.82","289","3.2","8.1","0.22","0.00"
"14:14:58","74.9","68.6","81.1","29.82","284","2","4","0.22","0.00"
"14:19:57","75.2","68.8","80.5","29.81","275","2.6","5","0.22","0.00"
"14:24:57","75.7","68.7","78.9","29.81","306","2.3","6","0.22","0.00"
"14:29:56","75.9","67.9","76.4","29.81","282","1.6","4","0.22","0.00"
"14:34:58","75.7","67.4","75.5","29.81","332","2","7","0.22","0.00"
"14:39:56","75.7","67.6","76","29.81","348","2.2","6.9","0.22","0.00"
"14:44:59","75.9","67.5","75.1","29.81","352","2.1","5.8","0.22","0.00"
"14:49:58","75.9","67","73.8","29.80","313","2.1","6","0.22","0.00"
"14:54:58","75.9","67.1","74.2","29.80","287","2.3","5","0.22","0.00"
"14:59:57","76.2","67.8","75.4","29.80","339","1.6","6","0.22","0.00"
"15:04:55","76.4","67.1","73.1","29.80","336","2.5","6","0.22","0.00"
"15:09:58","76.3","66.6","72","29.80","343","3","7","0.22","0.00"
"15:14:57","76.6","68.2","75.5","29.80","316","1.2","9","0.22","0.00"
"15:19:59","76.7","67.2","72.7","29.80","338","2.4","9.2","0.22","0.00"
"15:24:59","76.8","67.6","73.4","29.80","338","0.5","2.3","0.22","0.00"
"15:29:58","77.2","67.6","72.3","29.80","335","1.7","5","0.22","0.00"
"15:34:58","78","67.6","70.5","29.80","333","1.8","4.6","0.22","0.00"
"15:39:57","78.4","65.4","64.4","29.80","338","1.8","5","0.22","0.00"
"15:44:57","78.8","65.8","64.3","29.80","350","1.8","6","0.22","0.00"
"15:49:59","79.5","66.5","64.5","29.80","353","1.6","6","0.22","0.00"
"15:54:57","80","66.1","62.6","29.80","337","2.2","6","0.22","0.00"
"15:59:59","80.1","65.9","61.9","29.80","333","2.3","6","0.22","0.00"
"16:04:59","80.4","66.7","63.2","29.80","331","2.2","5","0.22","0.00"
"16:09:58","80.4","66.3","62.4","29.80","346","3.4","9.2","0.22","0.00"
"16:14:59","80.2","64.9","59.7","29.80","342","2.8","6.9","0.22","0.00"
"16:19:56","80.1","65.6","61.3","29.80","320","1.4","4.6","0.22","0.00"
"16:24:57","80.3","65.5","60.8","29.80","341","1.4","5","0.22","0.00"
"16:29:58","80.5","65.6","60.7","29.80","337","2.2","7","0.22","0.00"
"16:34:58","80.6","64.8","58.8","29.80","334","2.8","5","0.22","0.00"
"16:39:59","80.8","64.8","58.5","29.80","34","1.1","3.5","0.22","0.00"
"16:44:56","81.1","65.5","59.3","29.80","352","1.6","5","0.22","0.00"
"16:49:57","81.1","65.3","58.8","29.80","342","1","3.5","0.22","0.00"
"16:54:59","81.1","66","60.3","29.80","326","2.7","5","0.22","0.00"
"16:59:57","80.9","66.2","61.1","29.80","318","1.2","6","0.22","0.00"
"17:04:58","81","66.2","60.9","29.80","335","1.1","5.8","0.22","0.00"
"17:09:56","81.1","65.1","58.4","29.80","280","1.6","5","0.22","0.00"
"17:14:57","81.2","65","58","29.81","336","2.2","6","0.22","0.00"
"17:19:58","81.1","65","58.2","29.81","348","1.6","5","0.22","0.00"
"17:24:58","80.8","63.8","56.3","29.81","341","2.5","6","0.22","0.00"
"17:29:59","80.6","63.7","56.5","29.81","338","1.5","3.5","0.22","0.00"
"17:34:59","80.4","64.3","58.1","29.81","335","1.7","4","0.22","0.00"
"17:39:56","79.9","64.5","59.5","29.81","277","1.6","4","0.22","0.00"
"17:44:58","79.1","64.8","61.7","29.81","306","1.5","4","0.22","0.00"
"17:49:57","78.5","64.7","62.6","29.81","329","1.7","4","0.22","0.00"
"17:54:59","78.1","65.3","64.9","29.81","335","2","12","0.22","0.00"
"17:59:58","77","60.6","57.3","29.83","342","6.9","17","0.22","0.00"
"18:04:59","75.2","57","53.1","29.83","344","8.4","19.6","0.22","0.00"
"18:09:57","73.6","56.5","55.1","29.83","344","5.1","13.8","0.22","0.00"
"18:14:57","72.6","57.3","58.6","29.83","341","1.6","7","0.22","0.00"
"18:19:57","71.9","57.4","60.4","29.83","343","0.9","3.5","0.22","0.00"
"18:24:56","71.5","57.7","61.7","29.83","342","0.4","2.3","0.22","0.00"
"18:29:59","71.5","58.1","62.7","29.83","342","0.9","3.5","0.22","0.00"
"18:34:58","71.6","58.5","63.4","29.82","342","0.4","2.3","0.22","0.00"
"18:39:57","71.5","58","62.6","29.82","342","0.9","3.5","0.22","0.00"
"18:44:57","71.4","57.8","62.4","29.82","256","0.8","3.5","0.22","0.00"
"18:49:56","71.2","57.8","62.5","29.82","256","1","3.5","0.22","0.00"
"18:54:55","70.9","58","63.8","29.82","252","1.1","3.5","0.22","0.00"
"18:59:59","70.4","57.9","64.5","29.82","252","0","1.2","0.22","0.00"
"19:04:58","69.9","57.9","65.5","29.82","252","0","0","0.22","0.00"
"19:09:57","69.5","58.5","68.2","29.82","252","0","0","0.22","0.00"
"19:14:57","69","58.9","70.2","29.84","275","1.4","4","0.22","0.00"
"19:19:57","68.6","58.2","69.6","29.84","296","3.5","10","0.22","0.00"
"19:24:57","68.4","58.3","70.4","29.84","318","3.7","10.4","0.22","0.00"
"19:29:58","68.2","58.6","71.6","29.84","303","2","7","0.22","0.00"
"19:34:58","67.9","58.9","72.9","29.84","249","2","4","0.22","0.00"
"19:39:57","67.6","58.9","73.5","29.84","275","1.4","4","0.22","0.00"
"19:44:57","67.4","59.1","74.7","29.84","278","0.8","3.5","0.22","0.00"
"19:49:58","67.1","59.2","75.8","29.84","268","0.8","3","0.22","0.00"
"19:54:59","66.7","59.2","76.6","29.84","265","1.1","3.5","0.22","0.00"
"19:59:58","66.5","59.2","77.3","29.85","265","0.8","2.3","0.22","0.00"
"20:04:56","66.3","59.3","78.4","29.85","265","1.1","4","0.22","0.00"
"20:09:59","66.2","59.4","78.9","29.85","264","0.9","3.5","0.22","0.00"
"20:14:59","66.2","59","77.7","29.85","303","1.5","4","0.22","0.00"
"20:19:59","66.3","59.2","78","29.85","303","0.9","2.3","0.22","0.00"
"20:24:59","66.4","59.6","78.7","29.85","303","0.3","2","0.22","0.00"
"20:29:58","66.3","59.6","79","29.86","296","0.7","3","0.22","0.00"
"20:34:59","66.1","59.4","79","29.86","270","0.3","3.5","0.22","0.00"
"20:39:58","65.9","59.2","79","29.86","250","0.2","4","0.22","0.00"
"20:44:56","65.8","59.2","79.3","29.87","250","0.6","3.5","0.22","0.00"
"20:49:58","65.6","59.2","79.8","29.87","296","0.8","5","0.22","0.00"
"20:54:58","65.5","59.3","80.3","29.87","290","1","4","0.22","0.00"
"20:59:57","65.3","59.3","80.8","29.88","284","0.1","3.5","0.22","0.00"
"21:04:59","65.2","59.2","81","29.88","283","0","0","0.22","0.00"
"21:09:59","64.9","59.3","82","29.88","283","0","0","0.22","0.00"
"21:13:57","64.6","59","82","29.88","281","0","0","0.22","0.00"
"21:19:59","64.3","59","83","29.88","282","0","0","0.22","0.00"
"21:24:56","64.2","58.9","83","29.88","282","0","0","0.22","0.00"
"21:29:59","64.1","58.8","83","29.89","282","0","0","0.22","0.00"
"21:34:55","63.9","59","84","29.89","282","0","0","0.22","0.00"
"21:39:59","63.8","59.1","84.6","29.89","282","0","0","0.22","0.00"
"21:44:57","63.7","59","84.5","29.90","282","0","0","0.22","0.00"
"21:49:56","63.6","58.7","84","29.90","282","0","0","0.22","0.00"
"21:54:56","63.4","58.8","85","29.90","282","0","0","0.22","0.00"
"21:59:56","63.2","58.9","86","29.90","282","0","0","0.22","0.00"
"22:04:58","63","58.7","86","29.90","292","0","0","0.22","0.00"
"22:09:57","62.9","58.8","86.6","29.90","292","0","0","0.22","0.00"
"22:14:59","62.8","58.9","87","29.90","294","0.2","1.2","0.22","0.00"
"22:19:57","62.8","58.7","86.6","29.90","294","0.3","1.2","0.22","0.00"
"22:24:56","62.7","58.7","86.7","29.90","294","0.2","2.3","0.22","0.00"
"22:29:59","62.6","58.7","87","29.90","294","0.1","1.2","0.22","0.00"
"22:34:56","62.6","58.6","86.7","29.90","294","0.3","2.3","0.22","0.00"
"22:39:59","62.6","58.4","86","29.90","294","0.1","2.3","0.22","0.00"
"22:44:56","62.5","58.3","86","29.90","293","0","0","0.22","0.00"
"22:49:59","62.4","58.2","86","29.90","293","0","0","0.22","0.00"
"22:54:57","62.3","58.1","86.1","29.90","293","0","0","0.22","0.00"
"22:59:58","62.2","58.3","87","29.90","293","0.1","1.2","0.22","0.00"
"23:04:56","62","58.1","87","29.90","293","0","1.2","0.22","0.00"
"23:09:58","61.9","58","87","29.90","293","0","0","0.22","0.00"
"23:14:59","61.7","58.1","88","29.90","293","0","1.2","0.22","0.00"
"23:19:57","61.6","58","88","29.90","293","0","1.2","0.22","0.00"
"23:24:56","61.4","58.1","88.9","29.90","293","0","1","0.22","0.00"
"23:29:57","61.2","57.9","89","29.90","293","0","0","0.22","0.00"
"23:34:56","61.1","57.8","89.3","29.90","288","0.1","2","0.22","0.00"
"23:39:57","60.9","57.9","90","29.90","288","0.2","2.3","0.22","0.00"
"23:44:58","60.8","57.9","90.2","29.90","288","0.6","2.3","0.22","0.00"
"23:49:57","60.8","58.1","90.7","29.90","288","1.1","2.3","0.22","0.00"
"23:54:56","60.8","57.8","90","29.90","288","0.5","2.3","0.22","0.00"
"23:59:56","60.7","57.7","90","29.91","288","0.4","1.2","0.22","0.00"
